| time (UTC) | temp F | wind direction | speed MPH | gust MPH | rain 1hr in | rain 24hr in | rain mn in | humidity % | barometer mb |
| 20260506051016 | 71 | 157 | 4.0 | 7.0 | 0.00 | 0.00 | 0.00 | 92 | 1010.2 |
| 20260506045015 | 72 | 157 | 3.0 | 6.0 | 0.00 | 0.00 | 0.00 | 92 | 1010.2 |
| 20260506043115 | 71 | 157 | 3.0 | 6.0 | 0.00 | 0.00 | 0.00 | 92 | 1010.2 |
| 20260506042015 | 71 | 157 | 2.0 | 4.0 | 0.00 | 0.00 | 0.00 | 91 | |
| 20260506041015 | 72 | 157 | 2.0 | 4.0 | 0.00 | 0.00 | 0.00 | 90 | |
| 20260506040015 | 72 | 157 | 1.0 | 4.0 | 0.00 | 0.00 | 0.00 | 90 | |
| 20260506034015 | 72 | 157 | 3.0 | 6.0 | 0.00 | 0.00 | 0.00 | 90 | 1009.7 |
| 20260506033015 | 72 | 157 | 3.0 | 5.0 | 0.00 | 0.00 | 0.00 | 90 | 1009.5 |
| 20260506032015 | 73 | 157 | 2.0 | 4.0 | 0.00 | 0.00 | 0.00 | 88 | 1009.5 |
| 20260506031015 | 73 | 180 | 3.0 | 5.0 | 0.00 | 0.00 | 0.00 | 89 | 1009.5 |
| 20260506030015 | 73 | 157 | 3.0 | 6.0 | 0.00 | 0.00 | 0.00 | 88 | 1009.1 |
| 20260506025015 | 73 | 157 | 3.0 | 6.0 | 0.00 | 0.00 | 0.00 | 87 | 1009.2 |
| 20260506024015 | 73 | 157 | 3.0 | 5.0 | 0.00 | 0.00 | 0.00 | 86 | 1008.9 |
| 20260506022015 | 74 | 157 | 3.0 | 5.0 | 0.00 | 0.00 | 0.00 | 85 | 1008.6 |
| 20260506021015 | 74 | 157 | 2.0 | 4.0 | 0.00 | 0.00 | 0.00 | 85 | 1008.5 |
| 20260506020015 | 75 | 157 | 2.0 | 4.0 | 0.00 | 0.00 | 0.00 | 83 | 1008.5 |
| 20260506015015 | 75 | 157 | 3.0 | 4.0 | 0.00 | 0.00 | 0.00 | 82 | 1008.3 |
| 20260506014016 | 76 | 180 | 3.0 | 6.0 | 0.00 | 0.00 | 0.00 | 81 | 1008.1 |
| 20260506013016 | 76 | 157 | 3.0 | 5.0 | 0.00 | 0.00 | 0.00 | 80 | 1007.9 |
| 20260506012116 | 77 | 180 | 4.0 | 6.0 | 0.00 | 0.00 | 0.00 | 79 | 1007.8 |
| 20260506011015 | 77 | 180 | 4.0 | 6.0 | 0.00 | 0.00 | 0.00 | 79 | 1007.8 |
| 20260506010015 | 78 | 180 | 5.0 | 7.0 | 0.00 | 0.00 | 0.00 | 78 | 1007.6 |
| 20260506005015 | 78 | 157 | 4.0 | 8.0 | 0.00 | 0.00 | 0.00 | 77 | 1007.7 |
| 20260506004015 | 79 | 180 | 5.0 | 10.0 | 0.00 | 0.00 | 0.00 | 77 | 1007.8 |
| 20260506003015 | 80 | 180 | 6.0 | 11.0 | 0.00 | 0.00 | 0.00 | 75 | 1007.8 |
| 20260506002116 | 80 | 157 | 5.0 | 10.0 | 0.00 | 0.00 | 0.00 | 74 | 1008.1 |
| 20260506001016 | 81 | 180 | 6.0 | 12.0 | 0.00 | 0.00 | 0.00 | 73 | 1007.8 |
| 20260505235016 | 81 | 180 | 5.0 | 9.0 | 0.00 | 0.00 | 0.00 | 72 | 1008.0 |
| 20260505234015 | 81 | 180 | 6.0 | 11.0 | 0.00 | 0.00 | 0.00 | 72 | 1007.8 |
| 20260505233016 | 82 | 180 | 7.0 | 12.0 | 0.00 | 0.00 | 0.00 | 72 | 1007.9 |
| 20260505231015 | 82 | 180 | 6.0 | 13.0 | 0.00 | 0.00 | 0.00 | 72 | 1007.9 |
| 20260505230016 | 82 | 157 | 7.0 | 14.0 | 0.00 | 0.00 | 0.00 | 71 | 1007.7 |
| 20260505225016 | 82 | 157 | 8.0 | 13.0 | 0.00 | 0.00 | 0.00 | 72 | 1007.8 |
| 20260505224021 | 82 | 157 | 6.0 | 12.0 | 0.00 | 0.00 | 0.00 | 71 | 1007.8 |
| 20260505223116 | 83 | 180 | 8.0 | 14.0 | 0.00 | 0.00 | 0.00 | 71 | 1007.9 |
| 20260505222016 | 83 | 180 | 9.0 | 14.0 | 0.00 | 0.00 | 0.00 | 71 | 1007.8 |
| 20260505221016 | 83 | 180 | 5.0 | 11.0 | 0.00 | 0.00 | 0.00 | 70 | 1007.9 |
| 20260505220015 | 83 | 157 | 6.0 | 11.0 | 0.00 | 0.00 | 0.00 | 69 | 1008.0 |
| 20260505215016 | 83 | 157 | 6.0 | 12.0 | 0.00 | 0.00 | 0.00 | 70 | 1008.1 |
| 20260505214016 | 83 | 180 | 6.0 | 11.0 | 0.00 | 0.00 | 0.00 | 69 | 1008.3 |
| 20260505213016 | 83 | 180 | 5.0 | 11.0 | 0.00 | 0.00 | 0.00 | 69 | 1008.3 |
| 20260505212016 | 84 | 180 | 8.0 | 18.0 | 0.00 | 0.00 | 0.00 | 69 | 1008.5 |
| 20260505210016 | 84 | 180 | 8.0 | 14.0 | 0.00 | 0.00 | 0.00 | 68 | 1008.7 |
| 20260505205016 | 85 | 202 | 8.0 | 14.0 | 0.00 | 0.00 | 0.00 | 67 | 1009.1 |
| 20260505204016 | 85 | 202 | 6.0 | 11.0 | 0.00 | 0.00 | 0.00 | 65 | 1009.1 |
| 20260505203016 | 86 | 202 | 4.0 | 8.0 | 0.00 | 0.00 | 0.00 | 62 | 1009.4 |
| 20260505202016 | 86 | 202 | 5.0 | 10.0 | 0.00 | 0.00 | 0.00 | 63 | 1009.2 |
| 20260505201116 | 85 | 225 | 6.0 | 12.0 | 0.00 | 0.00 | 0.00 | 62 | 1009.4 |
| 20260505200016 | 85 | 225 | 9.0 | 15.0 | 0.00 | 0.00 | 0.00 | 65 | 1009.3 |
| 20260505195015 | 85 | 225 | 9.0 | 15.0 | 0.00 | 0.00 | 0.00 | 65 | 1009.4 |
| 20260505194015 | 84 | 225 | 7.0 | 12.0 | 0.00 | 0.00 | 0.00 | 66 | 1009.6 |
| 20260505193015 | 83 | 202 | 6.0 | 12.0 | 0.00 | 0.00 | 0.00 | 68 | 1009.7 |
| 20260505192016 | 83 | 202 | 6.0 | 11.0 | 0.00 | 0.00 | 0.00 | 71 | 1009.7 |
| 20260505191016 | 83 | 202 | 6.0 | 13.0 | 0.00 | 0.00 | 0.00 | 71 | 1009.6 |
| 20260505190016 | 82 | 202 | 6.0 | 13.0 | 0.00 | 0.00 | 0.00 | 72 | 1009.7 |
| 20260505185156 | 82 | 180 | 7.0 | 14.0 | 0.00 | 0.00 | 0.00 | 71 | 1009.9 |
| 20260505184116 | 82 | 225 | 6.0 | 13.0 | 0.00 | 0.00 | 0.00 | 73 | 1010.2 |
| 20260505183017 | 81 | 202 | 8.0 | 14.0 | 0.00 | 0.00 | 0.00 | 71 | 1010.5 |
| 20260505182016 | 81 | 202 | 6.0 | 11.0 | 0.00 | 0.00 | 0.00 | 71 | 1010.6 |
| 20260505181016 | 80 | 247 | 7.0 | 13.0 | 0.00 | 0.00 | 0.00 | 75 | 1010.6 |
| 20260505180016 | 80 | 225 | 6.0 | 13.0 | 0.00 | 0.00 | 0.00 | 77 | 1010.8 |
| 20260505175117 | 79 | 225 | 7.0 | 12.0 | 0.00 | 0.00 | 0.00 | 76 | 1010.7 |
| 20260505174016 | 78 | 202 | 5.0 | 11.0 | 0.00 | 0.00 | 0.00 | 79 | 1010.7 |
| 20260505173016 | 77 | 225 | 8.0 | 16.0 | 0.00 | 0.00 | 0.00 | 78 | 1010.9 |
| 20260505172017 | 77 | 202 | 9.0 | 14.0 | 0.00 | 0.00 | 0.00 | 78 | 1010.8 |
| 20260505171117 | 76 | 225 | 8.0 | 14.0 | 0.00 | 0.00 | 0.00 | 82 | 1011.0 |
| 20260505170016 | 76 | 202 | 12.0 | 16.0 | 0.00 | 0.00 | 0.00 | 79 | 1010.9 |
| 20260505165016 | 76 | 225 | 10.0 | 14.0 | 0.00 | 0.00 | 0.00 | 82 | 1010.9 |
| 20260505164016 | 75 | 225 | 8.0 | 14.0 | 0.00 | 0.00 | 0.00 | 82 | 1010.9 |
| 20260505163016 | 75 | 202 | 8.0 | 13.0 | 0.00 | 0.00 | 0.00 | 83 | 1010.9 |
| 20260505162016 | 0 | 202 | 9.0 | 14.0 | 0.00 | 0.00 | 0.00 | ||
| 20260505161016 | 0 | 202 | 8.0 | 15.0 | 0.00 | 0.00 | 0.00 | ||
| 20260505152016 | 69 | 225 | 7.0 | 14.0 | 0.00 | 0.00 | 0.00 | 93 | 1010.3 |
| 20260505151016 | 69 | 202 | 10.0 | 17.0 | 0.00 | 0.00 | 0.00 | 93 | 1010.2 |
| 20260505150116 | 68 | 0.0 | 0.0 | 0.00 | 0.00 | 0.00 | 94 | 1010.1 | |
| 20260505125016 | 66 | 202 | 13.0 | 19.0 | 0.00 | 0.00 | 0.00 | 98 | 1009.3 |
| 20260505124016 | 66 | 202 | 13.0 | 20.0 | 0.00 | 0.00 | 0.00 | 98 | 1009.2 |
| 20260505123016 | 66 | 202 | 14.0 | 27.0 | 0.00 | 0.00 | 0.00 | 98 | 1009.3 |
| 20260505122016 | 66 | 202 | 13.0 | 20.0 | 0.00 | 0.00 | 0.00 | 98 | 1009.2 |
| 20260505121137 | 66 | 202 | 11.0 | 18.0 | 0.00 | 0.00 | 0.00 | 98 | 1009.0 |
| 20260505120016 | 66 | 202 | 11.0 | 19.0 | 0.00 | 0.00 | 0.00 | 98 | 1008.9 |
| 20260505115016 | 66 | 202 | 12.0 | 18.0 | 0.00 | 0.00 | 0.00 | 98 | 1008.9 |
| 20260505114017 | 66 | 202 | 11.0 | 17.0 | 0.00 | 0.00 | 0.00 | 98 | 1008.8 |
| 20260505113016 | 66 | 202 | 10.0 | 17.0 | 0.00 | 0.00 | 0.00 | 97 | 1008.8 |
| 20260505112016 | 66 | 202 | 12.0 | 18.0 | 0.00 | 0.00 | 0.00 | 97 | 1008.8 |
| 20260505111016 | 66 | 202 | 12.0 | 19.0 | 0.00 | 0.00 | 0.00 | 97 | 1008.8 |
| 20260505102157 | 66 | 202 | 13.0 | 20.0 | 0.00 | 0.00 | 0.00 | 96 | 1009.1 |
| 20260505101016 | 66 | 202 | 14.0 | 21.0 | 0.00 | 0.00 | 0.00 | 96 | 1009.0 |
| 20260505100117 | 66 | 202 | 17.0 | 25.0 | 0.00 | 0.00 | 0.00 | 96 | 1009.0 |
| 20260505095017 | 66 | 202 | 14.0 | 22.0 | 0.00 | 0.00 | 0.00 | 96 | 1009.1 |
| 20260505094016 | 66 | 202 | 15.0 | 23.0 | 0.00 | 0.00 | 0.00 | 95 | 1009.1 |
| 20260505093018 | 66 | 202 | 13.0 | 23.0 | 0.00 | 0.00 | 0.00 | 95 | 1009.2 |
| 20260505092116 | 66 | 202 | 13.0 | 20.0 | 0.00 | 0.00 | 0.00 | 95 | 1009.3 |
| 20260505091016 | 66 | 202 | 13.0 | 24.0 | 0.00 | 0.00 | 0.00 | 96 | 1009.1 |
| 20260505090016 | 66 | 202 | 12.0 | 21.0 | 0.00 | 0.00 | 0.00 | 96 | 1009.1 |
| 20260505085017 | 66 | 202 | 12.0 | 19.0 | 0.00 | 0.00 | 0.00 | 96 | 1009.2 |
| 20260505084016 | 66 | 202 | 12.0 | 18.0 | 0.00 | 0.00 | 0.00 | 96 | 1009.3 |
| 20260505083017 | 66 | 202 | 11.0 | 17.0 | 0.00 | 0.00 | 0.00 | 96 | 1009.5 |
| 20260505081016 | 65 | 202 | 11.0 | 18.0 | 0.00 | 0.00 | 0.00 | 96 | 1010.0 |
| 20260505080016 | 65 | 202 | 12.0 | 19.0 | 0.00 | 0.00 | 0.00 | 96 | 1009.8 |
| 20260505075017 | 66 | 180 | 12.0 | 19.0 | 0.00 | 0.00 | 0.00 | 95 | 1009.8 |
| 20260505074137 | 66 | 180 | 11.0 | 20.0 | 0.00 | 0.00 | 0.00 | 95 | 1009.7 |
| 20260505073016 | 66 | 202 | 12.0 | 18.0 | 0.00 | 0.00 | 0.00 | 95 | 1010.1 |
| 20260505072017 | 66 | 180 | 12.0 | 20.0 | 0.00 | 0.00 | 0.00 | 94 | 1010.3 |
| 20260505071016 | 66 | 180 | 10.0 | 14.0 | 0.00 | 0.00 | 0.00 | 94 | |
| 20260505070016 | 66 | 180 | 10.0 | 17.0 | 0.00 | 0.00 | 0.00 | 93 | 1009.9 |
| 20260505065116 | 66 | 202 | 9.0 | 18.0 | 0.00 | 0.00 | 0.00 | 92 | 1010.6 |
| 20260505064017 | 66 | 180 | 9.0 | 17.0 | 0.00 | 0.00 | 0.00 | 92 | 1010.4 |
| 20260505063017 | 66 | 180 | 8.0 | 14.0 | 0.00 | 0.00 | 0.00 | 91 | 1010.5 |
| 20260505062021 | 66 | 180 | 9.0 | 15.0 | 0.00 | 0.00 | 0.00 | 91 | 1010.5 |
| 20260505061016 | 66 | 202 | 8.0 | 14.0 | 0.00 | 0.00 | 0.00 | 91 | 1010.8 |
| 20260505060016 | 66 | 180 | 7.0 | 12.0 | 0.00 | 0.00 | 0.00 | 90 | 1010.7 |
| 20260505055016 | 66 | 180 | 7.0 | 14.0 | 0.00 | 0.00 | 0.00 | 89 | 1010.8 |
| 20260505054137 | 66 | 180 | 7.0 | 13.0 | 0.00 | 0.00 | 0.00 | 89 | 1010.8 |
| 20260505053016 | 67 | 180 | 7.0 | 12.0 | 0.00 | 0.00 | 0.00 | 88 | 1011.0 |
| 20260505052016 | 67 | 202 | 9.0 | 14.0 | 0.00 | 0.00 | 0.00 | 88 | 1011.0 |